Ballenas Island Automatic Weather Reporti, British Columbia

6:12 AM PST on December 05, 2016 (GMT -0800)
Ballenas Island Automatic Weather Reporti

Weather History for 71769 - October, 2012

Change the Weather History Date:

Wednesday, October 31, 2012

  Actual Average Record
Temperature  
Mean Temperature 49 °F -  
Max Temperature 51 °F - - ()
Min Temperature 47 °F - - ()
Degree Days  
Heating Degree Days 16    
Moisture  
Dew Point 49 °F    
Average Humidity 95    
Maximum Humidity 97    
Minimum Humidity 94    
Precipitation  
Precipitation 0.28 in - - ()
Sea Level Pressure  
Sea Level Pressure 29.63 in    
Wind  
Wind Speed 9 mph ()    
Max Wind Speed 17 mph    
Max Gust Speed -    
T = Trace of Precipitation, MM = Missing Value Source: Averaged Metar Reports

Daily Weather History Graph

Daily Weather History Graph

Search for Another Location

Airport or City:

Trip Planner

Search our weather history database for the weather conditions in past years. The results will help you decide how hot, cold, wet, or windy it might be!

Date:

Astronomy

Oct. 31, 2012 Rise Set
Actual Time 8:04 AM PDT 5:55 PM PDT
Civil Twilight 7:30 AM PDT 6:29 PM PDT
Nautical Twilight 6:52 AM PDT 7:06 PM PDT
Astronomical Twilight 6:15 AM PDT 7:43 PM PDT
Moon 6:59 PM PDT (10/31) 10:00 AM PDT (10/31)
Length of Visible Light 10h 58m
Length of Day
9h 51m
Waning Gibbous, 97% of the Moon is Illuminated
Oct 31
Waning Gibbous
Nov 6
Last Quarter
Nov 13
New
Nov 20
First Quarter
Nov 28
Full

Hourly Weather History & Observations

Time (PDT) Temp. Dew Point Humidity Pressure Visibility Wind Dir Wind Speed Gust Speed Precip Events Conditions
12:00 AM 50.5 °F 49.6 °F 97% 29.71 in - SE 5.8 mph - 0.02 in   Unknown
1:00 AM 50.9 °F 49.5 °F 95% 29.70 in - ESE 12.7 mph - N/A   Unknown
2:00 AM 51.1 °F 49.6 °F 95% 29.69 in - ESE 13.8 mph - 0.01 in   Unknown
3:00 AM 51.3 °F 49.8 °F 95% 29.69 in - ESE 17.3 mph - N/A   Unknown
4:00 AM 51.1 °F 49.8 °F 95% 29.68 in - SE 12.7 mph - 0.02 in   Unknown
5:00 AM 51 °F 50 °F 94% 29.67 in - ESE 13.8 mph - -  
5:00 AM 51.1 °F 49.8 °F 95% 29.67 in - ESE 13.8 mph - 0.02 in   Unknown
6:00 AM 50.5 °F 49.3 °F 95% 29.65 in - ESE 17.3 mph - 0.02 in   Unknown
7:00 AM 50.5 °F 49.3 °F 95% 29.65 in - ESE 17.3 mph - 0.02 in   Unknown
8:00 AM 50.4 °F 49.1 °F 95% 29.63 in - ESE 12.7 mph - 0.02 in   Unknown
9:00 AM 50.2 °F 48.9 °F 95% 29.64 in - ESE 9.2 mph - 0.05 in   Unknown
10:00 AM 50.4 °F 48.9 °F 95% 29.62 in - ESE 11.5 mph - 0.07 in   Unknown
11:00 AM 50 °F 49 °F 94% 29.61 in - SE 8.1 mph - -  
11:00 AM 50.2 °F 48.7 °F 95% 29.61 in - SE 8.1 mph - 0.07 in   Unknown
12:00 PM 49.8 °F 48.6 °F 95% 29.60 in - ESE 5.8 mph - 0.06 in   Unknown
1:00 PM 50.0 °F 48.9 °F 96% 29.58 in - SE 6.9 mph - 0.05 in   Unknown
2:00 PM 50.0 °F 48.9 °F 96% 29.56 in - SE 5.8 mph - 0.02 in   Unknown
3:00 PM 50.2 °F 49.1 °F 96% 29.55 in - ESE 3.5 mph - 0.02 in   Unknown
4:00 PM 50.2 °F 49.1 °F 96% 29.55 in - East 3.5 mph - 0.02 in   Unknown
5:00 PM 50 °F 49 °F 95% 29.57 in - East 3.5 mph - -  
5:00 PM 50.0 °F 48.9 °F 96% 29.57 in - East 3.5 mph - 0.06 in   Unknown
6:00 PM 50.0 °F 48.9 °F 96% 29.58 in - WSW 1.2 mph - 0.04 in   Unknown
7:00 PM 49.5 °F 48.4 °F 96% 29.60 in - West 2.3 mph - N/A   Unknown
8:00 PM 48.9 °F 47.8 °F 96% 29.61 in - SSW 2.3 mph - N/A   Unknown
9:00 PM 50.4 °F 49.5 °F 97% 29.62 in - SE 8.1 mph - N/A   Unknown
10:00 PM 50.4 °F 49.5 °F 97% 29.63 in - ESE 13.8 mph - N/A   Unknown
11:00 PM 51 °F 50 °F 94% 29.64 in - ESE 15.0 mph - -  
11:00 PM 50.7 °F 49.8 °F 97% 29.64 in - ESE 15.0 mph - N/A   Unknown